Location: Okie-Tex Star Party
(36.8978°N, 102.9520°W)
Time: 17:28:22
(UTC-05:00)

Daily predictions for brighter satellites

Satellite Brightness Start Highest point End
(mag) Time Altitude Azimuth Time Altitude Azimuth Time Altitude Azimuth
Cosmos 1937 Rocket 4.4 20:29:30 10° SSW 20:34:39 57° WNW 20:39:52 10° N
Cosmos 1953 3.4 20:31:50 10° SE 20:35:07 24° E 20:38:25 10° NE
SL-27 R/B 2.5 20:32:52 10° NNW 20:36:29 73° ENE 20:40:05 10° SSE
Helios 1B rocket 4.0 20:37:38 10° ENE 20:40:05 15° E 20:42:33 10° SE
Cosmos 1766 3.2 20:37:51 10° S 20:41:43 85° E 20:45:37 10° N
Okean 3 Rocket 4.1 20:37:48 10° N 20:41:55 38° E 20:46:02 10° SSE
Cosmos 1934 Rocket 4.0 20:37:12 10° S 20:43:20 84° E 20:49:26 10° N
Lacrosse 4 Rocket 4.2 20:41:45 10° W 20:44:37 18° NW 20:47:30 10° N
Abrixas 3.5 20:42:04 10° NW 20:44:38 29° NNE 20:46:58 11° E
Tiangong 1 1.6 20:42:58 10° WNW 20:45:49 47° SSW 20:48:38 10° SE
Cosmos 1076 Rocket 4.5 20:42:28 10° NNE 20:46:03 26° ENE 20:49:36 10° SE
Cosmos 1812 Rocket 4.2 20:44:16 10° SSW 20:48:37 61° W 20:52:59 10° N
Cosmos 1674 4.3 20:46:50 10° NNE 20:49:22 17° ENE 20:51:30 12° ESE
COSMOS 2487 3.9 20:52:17 10° NNE 20:55:04 21° ENE 20:56:56 14° ESE
Lacrosse 5 rocket 3.3 20:54:00 10° N 20:56:04 14° NNE 20:58:05 10° ENE
Helios 1A 4.2 20:53:10 11° ESE 20:56:11 22° ENE 20:59:27 10° NNE
ISS -3.5 20:56:03 10° SSW 20:59:09 45° SE 21:02:04 12° ENE
Cosmos 1818 3.8 20:54:49 10° NNW 21:00:09 52° ENE 21:05:09 11° SE
USA 186 2.8 21:04:49 16° NE 21:04:49 16° NE 21:05:48 10° NNE
GP-B 3.8 21:02:27 10° SE 21:06:24 32° E 21:10:21 10° NNE
CZ-3B DEB 4.3 20:55:30 10° WSW 21:06:40 43° NW 21:12:05 10° NNE
Meteor 1-4 Rocket 2.3 21:03:42 10° S 21:07:08 66° E 21:10:36 10° NNE
Cosmos 1766 Rocket 4.3 21:03:28 10° NNE 21:07:32 33° ENE 21:11:01 13° SE
H-II Stage 2 2.9 21:06:33 10° SSW 21:07:53 15° S 21:08:28 14° SSE
CZ-2D R/B 3.5 21:04:22 10° SSE 21:08:04 47° ENE 21:11:49 10° N
Cosmos 468 4.5 21:04:03 10° NNW 21:09:16 67° ENE 21:14:29 10° SSE
Cosmos 372 Rocket 4.0 21:04:26 10° S 21:09:24 56° ESE 21:14:27 10° NNE
Cosmos-2242 3.6 21:07:21 10° SSE 21:11:11 34° E 21:15:03 10° NNE
In-Cosmos 22 4.1 21:06:02 10° N 21:11:21 86° W 21:16:38 10° S
Cosmos 1805 3.3 21:08:09 10° S 21:12:02 82° W 21:15:57 10° N
Resurs 01 Rocket 1.5 21:09:55 10° SSE 21:14:18 83° ENE 21:18:45 10° N
RESURS DK-1 3.9 21:10:48 10° NW 21:14:37 37° WSW 21:18:25 10° S
Cosmos 158 Rocket 4.3 21:12:23 10° N 21:17:19 44° ENE 21:20:47 19° SE
Cosmos 1544 3.5 21:14:15 10° SSW 21:17:52 66° W 21:21:32 10° N
Meteor 1-21 Rocket 4.3 21:15:52 10° N 21:21:42 65° E 21:27:33 10° SSE
USA 215 3.6 21:16:37 10° ENE 21:22:42 41° SE 21:28:45 10° SSW
Cosmos 2098 Rocket 4.4 21:15:55 10° S 21:23:06 83° E 21:30:45 10° N
FENGYUN 3A 4.3 21:18:10 10° S 21:23:29 58° W 21:28:48 10° NNW
Lacrosse 5 4.1 21:20:54 10° W 21:24:58 24° NW 21:29:04 10° NNE
Cosmos 1833 Rocket 2.8 21:22:55 10° NNW 21:28:28 57° ENE 21:31:55 23° SE
Cosmos 1470 2.8 21:25:17 10° S 21:29:09 53° E 21:33:02 10° NNE
Spot 2 Rocket 3.7 21:24:39 10° S 21:29:45 76° WSW 21:34:53 10° NNW
Cosmos 2100 Rocket 4.0 21:25:59 10° S 21:32:08 59° E 21:38:23 10° NNE
Cosmos 1733 3.2 21:28:44 10° S 21:32:30 55° E 21:36:19 10° NNE
Cosmos 1867 4.1 21:28:45 10° SW 21:34:07 61° WNW 21:39:33 10° NNE
Cosmos 2278 Rocket 4.2 21:29:14 10° WSW 21:34:13 31° WNW 21:39:12 10° N
Cosmos 1743 Rocket 4.2 21:34:49 10° NNE 21:38:52 34° ENE 21:38:55 34° E
ATLAS 5 CENTAUR R/B 1.9 21:36:06 10° SW 21:40:44 77° WNW 21:45:45 10° NNE
Cosmos 1340 Rocket 2.9 21:38:48 10° N 21:42:42 49° E 21:42:57 48° E
H-2A R/B 4.3 21:41:11 10° SSW 21:44:46 36° W 21:48:26 10° NNW
SJ-11-01 4.4 21:46:37 42° ESE 21:47:44 52° ENE 21:52:19 10° N
Envisat 3.0 21:45:57 35° SE 21:47:54 58° ENE 21:52:53 10° N
Gblst 52 Del rocket 4.3 21:48:41 10° SSW 21:54:33 51° SE 21:55:48 43° E
Cosmos 1802 Rocket 3.8 21:48:38 10° S 21:54:42 70° E 22:00:51 10° NNE
Cosmos 1408 Rocket 4.0 21:54:58 10° NNW 21:59:22 61° W 22:02:21 20° S
H-2A R/B 4.4 22:02:14 10° NE 22:02:14 10° NE 22:02:29 10° NE
ERS-1 Rocket 3.4 22:03:18 42° ENE 22:03:18 42° ENE 22:07:41 10° N
SeaSat 1 4.2 21:59:10 10° SSW 22:03:25 29° WSW 22:07:41 10° NW
Cosmos 2082 Rocket 2.6 22:01:03 10° NNW 22:06:38 60° WSW 22:09:47 26° S
GPS 2-05 Rocket1 3.9 22:06:33 10° W 22:09:03 42° WSW 22:09:03 42° WSW
Cosmos 2061 Rocket 4.1 22:03:51 10° S 22:10:14 80° W 22:16:42 10° N
Cosmos 1842 Rocket 4.0 22:11:40 51° NNE 22:11:40 51° NNE 22:15:01 10° N
Cosmos 1271 Rocket 4.1 22:07:34 10° SSW 22:11:21 41° WNW 22:15:11 10° N
Meteor 1-11 4.5 22:06:32 10° N 22:11:31 48° ENE 22:11:31 48° ENE
Meteor 1-16 Rocket 4.2 22:11:25 31° S 22:14:20 77° E 22:20:16 10° NNE
Helios 1B rocket 4.0 22:11:43 10° N 22:15:30 36° WNW 22:19:15 10° SW
Timation 2 Rocket 4.2 22:12:13 10° NNW 22:18:23 64° WSW 22:20:52 36° S
Cosmos 1939 Rocket 3.3 22:20:09 64° NW 22:20:09 64° NW 22:23:51 10° NNW
Cosmos 1459 Rocket 4.5 22:14:30 10° SSW 22:20:40 59° W 22:26:47 10° N
OAO 2 Rocket 4.4 22:21:01 10° SW 22:24:20 35° SSW 22:24:20 35° SSW
Cosmos 1864 Rocket 4.4 22:32:41 72° SSE 22:33:19 82° E 22:39:40 10° N
ISS -0.9 22:33:18 10° WNW 22:34:48 17° NW 22:34:48 17° NW
Lacrosse 5 rocket 3.0 22:31:58 10° NW 22:33:58 29° NW 22:33:58 29° NW
Cosmos 2251 Rocket 3.8 22:37:28 10° NNW 22:41:56 63° NNW 22:41:56 63° NNW
Cosmos 2369 Rocket 4.5 23:00:18 13° NNE 23:00:18 13° NNE 23:00:53 10° NNE
USA 215 3.9 22:59:26 10° NE 23:05:44 53° NW 23:12:01 10° WSW
SPOT 5 4.5 23:12:49 34° NNW 23:12:49 34° NNW 23:15:46 10° NNW
H-2A R/B (2) 4.3 23:06:23 10° WSW 23:51:12 - ESE 23:08:06 21° SW
USA 267 4.3 23:38:11 39° N 23:38:11 39° N 23:42:36 10° NW
H-2A R/B 4.3 23:42:52 21° NNW 23:42:52 21° NNW 23:44:29 10° NNW
